Weather History for Artesia, NM

Change the Weather History Date:

Wednesday, May 2, 2012

  Actual Average Record
Temperature  
Mean Temperature 73 °F -  
Max Temperature 91 °F 79 °F 98 °F (1992)
Min Temperature 55 °F 43 °F 26 °F (1967)
Cooling Degree Days 8    
Growing Degree Days 23 (Base 50)    
Moisture  
Dew Point 10 °F    
Average Humidity 10    
Maximum Humidity 18    
Minimum Humidity 4    
Precipitation  
Precipitation 0.00 in - - ()
Sea Level Pressure  
Sea Level Pressure 29.84 in    
Wind  
Wind Speed 12 mph (SW)    
Max Wind Speed 30 mph    
Max Gust Speed 39 mph    
Visibility 10 miles    
Events      
Averages and records for this station are not official NWS values.
T = Trace of Precipitation, MM = Missing Value Source: NWS Daily Summary

Daily Weather History Graph

Daily Weather History Graph

Search for Another Location

Airport:

Trip Planner

Search our weather history database for the weather conditions in past years. The results will help you decide how hot, cold, wet, or windy it might be!

Date:

Astronomy

May. 02, 2012 Rise Set
Actual Time 6:09 AM MDT 7:40 PM MDT
Civil Twilight 5:42 AM MDT 8:07 PM MDT
Nautical Twilight 5:11 AM MDT 8:39 PM MDT
Astronomical Twilight 4:38 AM MDT 9:12 PM MDT
Moon 4:06 PM MDT (5/2) 3:27 AM MDT (5/2)
Length of Visible Light 14h 24m
Length of Day
13h 31m
Waxing Gibbous, 84% of the Moon is Illuminated
May 2
Waxing Gibbous
May 5
Full
May 12
Last Quarter
May 20
New
May 28
First Quarter

Hourly Weather History & Observations

Time (MDT) Temp. Dew Point Humidity Pressure Visibility Wind Dir Wind Speed Gust Speed Precip Events Conditions
12:15 AM 64.4 °F 6.8 °F 10% 29.80 in 10.0 mi SW 12.7 mph - N/A   Clear
12:55 AM 62.6 °F 6.8 °F 11% 29.80 in 10.0 mi SW 15.0 mph - N/A   Clear
1:15 AM 62.6 °F 8.6 °F 12% 29.80 in 10.0 mi SW 15.0 mph - N/A   Clear
1:35 AM 62.6 °F 8.6 °F 12% 29.80 in 10.0 mi WSW 13.8 mph - N/A   Clear
1:55 AM 62.6 °F 8.6 °F 12% 29.81 in 10.0 mi SW 12.7 mph - N/A   Clear
2:15 AM 60.8 °F 8.6 °F 13% 29.81 in 10.0 mi WSW 10.4 mph - N/A   Clear
2:35 AM 59.0 °F 8.6 °F 14% 29.82 in 10.0 mi SE 5.8 mph - N/A   Clear
2:55 AM 57.2 °F 8.6 °F 14% 29.82 in 10.0 mi Calm Calm - N/A   Clear
3:15 AM 60.8 °F 10.4 °F 14% 29.82 in 10.0 mi WSW 10.4 mph - N/A   Clear
3:35 AM 59.0 °F 12.2 °F 16% 29.82 in 10.0 mi West 9.2 mph - N/A   Clear
3:55 AM 59.0 °F 12.2 °F 16% 29.83 in 10.0 mi South 4.6 mph - N/A   Clear
4:15 AM 60.8 °F 12.2 °F 15% 29.84 in 10.0 mi SW 3.5 mph - N/A   Clear
4:35 AM 59.0 °F 12.2 °F 16% 29.84 in 10.0 mi ESE 4.6 mph - N/A   Clear
4:55 AM 55.4 °F 10.4 °F 17% 29.84 in 10.0 mi SSE 4.6 mph - N/A   Clear
5:15 AM 57.2 °F 10.4 °F 16% 29.84 in 10.0 mi SSE 5.8 mph - N/A   Clear
5:35 AM 57.2 °F 10.4 °F 16% 29.85 in 10.0 mi South 3.5 mph - N/A   Clear
5:55 AM 57.2 °F 12.2 °F 17% 29.85 in 10.0 mi South 5.8 mph - N/A   Clear
6:15 AM 55.4 °F 10.4 °F 17% 29.85 in 10.0 mi Calm Calm - N/A   Clear
6:35 AM 55.4 °F 10.4 °F 17% 29.87 in 10.0 mi SW 4.6 mph - N/A   Clear
6:55 AM 55.4 °F 12.2 °F 18% 29.86 in 10.0 mi NE 3.5 mph - N/A   Clear
7:15 AM 59.0 °F 14.0 °F 17% 29.88 in 10.0 mi Calm Calm - N/A   Clear
7:35 AM 60.8 °F 14.0 °F 16% 29.89 in 10.0 mi East 3.5 mph - N/A   Clear
7:55 AM 64.4 °F 14.0 °F 14% 29.90 in 10.0 mi Calm Calm - N/A   Clear
8:15 AM 66.2 °F 15.8 °F 14% 29.90 in 10.0 mi Calm Calm - N/A   Clear
9:15 AM 73.4 °F 19.4 °F 13% 29.91 in 10.0 mi Calm Calm - N/A   Clear
9:35 AM 77.0 °F 19.4 °F 12% 29.91 in 10.0 mi Calm Calm - N/A   Clear
9:55 AM 78.8 °F 21.2 °F 12% 29.91 in 10.0 mi SE 4.6 mph - N/A   Clear
10:15 AM 80.6 °F 21.2 °F 11% 29.90 in 10.0 mi ENE 5.8 mph - N/A   Clear
10:35 AM 82.4 °F 21.2 °F 10% 29.90 in 10.0 mi ENE 3.5 mph - N/A   Clear
10:55 AM 86.0 °F 19.4 °F 9% 29.90 in 10.0 mi West 4.6 mph - N/A   Clear
11:15 AM 87.8 °F 14.0 °F 6% 29.89 in 10.0 mi WSW 12.7 mph 17.3 mph N/A   Clear
11:35 AM 89.6 °F 14.0 °F 6% 29.89 in 10.0 mi West 13.8 mph 21.9 mph N/A   Clear
11:55 AM 89.6 °F 14.0 °F 6% 29.88 in 10.0 mi SW 11.5 mph 19.6 mph N/A   Clear
12:15 PM 91.4 °F 14.0 °F 6% 29.87 in 10.0 mi SW 11.5 mph 26.5 mph N/A   Clear
12:35 PM 91.4 °F 14.0 °F 6% 29.86 in 10.0 mi WSW 17.3 mph 25.3 mph N/A   Clear
12:55 PM 91.4 °F 12.2 °F 5% 29.86 in 10.0 mi SW 16.1 mph 27.6 mph N/A   Clear
1:15 PM 91.4 °F 14.0 °F 6% 29.85 in 10.0 mi SW 25.3 mph 32.2 mph N/A   Clear
1:35 PM 91.4 °F 14.0 °F 6% 29.84 in 10.0 mi SW 26.5 mph 33.4 mph N/A   Clear
1:55 PM 91.4 °F 10.4 °F 5% 29.83 in 10.0 mi WSW 24.2 mph 34.5 mph N/A   Clear
2:15 PM 91.4 °F 8.6 °F 5% 29.83 in 10.0 mi WSW 24.2 mph 34.5 mph N/A   Clear
2:35 PM 91.4 °F 6.8 °F 4% 29.82 in 10.0 mi WSW 27.6 mph 35.7 mph N/A   Clear
2:55 PM 91.4 °F 6.8 °F 4% 29.81 in 10.0 mi SW 24.2 mph 34.5 mph N/A   Clear
3:15 PM 91.4 °F 6.8 °F 4% 29.80 in 10.0 mi SW 27.6 mph 34.5 mph N/A   Clear
3:35 PM 91.4 °F 6.8 °F 4% 29.80 in 10.0 mi SSW 21.9 mph 33.4 mph N/A   Clear
3:55 PM 91.4 °F 6.8 °F 4% 29.79 in 10.0 mi SW 23.0 mph 32.2 mph N/A   Clear
4:15 PM 89.6 °F 1.4 °F 4% 29.79 in 10.0 mi SW 27.6 mph 35.7 mph N/A   Clear
4:35 PM 91.4 °F 1.4 °F 4% 29.79 in 10.0 mi SW 27.6 mph 36.8 mph N/A   Clear
4:55 PM 89.6 °F 1.4 °F 4% 29.79 in 10.0 mi SSW 25.3 mph 34.5 mph N/A   Clear
5:15 PM 89.6 °F 1.4 °F 4% 29.80 in 10.0 mi WSW 23.0 mph 33.4 mph N/A   Clear
5:35 PM 89.6 °F 1.4 °F 4% 29.80 in 10.0 mi WSW 23.0 mph 36.8 mph N/A   Clear
5:55 PM 87.8 °F 5.0 °F 4% 29.80 in 10.0 mi SW 24.2 mph 31.1 mph N/A   Clear
6:15 PM 87.8 °F 5.0 °F 4% 29.80 in 10.0 mi WSW 20.7 mph 27.6 mph N/A   Clear
6:35 PM 86.0 °F 5.0 °F 5% 29.80 in 10.0 mi SW 29.9 mph 39.1 mph N/A   Clear
6:55 PM 86.0 °F 6.8 °F 5% 29.81 in 10.0 mi SW 23.0 mph 33.4 mph N/A   Clear
7:15 PM 84.2 °F 5.0 °F 5% 29.82 in 10.0 mi WSW 20.7 mph - N/A   Clear
7:35 PM 82.4 °F 6.8 °F 6% 29.82 in 10.0 mi WSW 18.4 mph - N/A   Clear
7:55 PM 80.6 °F 6.8 °F 6% 29.83 in 10.0 mi SW 18.4 mph - N/A   Clear
8:15 PM 78.8 °F 6.8 °F 6% 29.84 in 10.0 mi SW 15.0 mph - N/A   Clear
8:35 PM 77.0 °F 6.8 °F 7% 29.85 in 10.0 mi WSW 11.5 mph - N/A   Clear
8:55 PM 73.4 °F 6.8 °F 8% 29.85 in 10.0 mi SW 5.8 mph - N/A   Clear
9:15 PM 71.6 °F 6.8 °F 8% 29.86 in 10.0 mi Calm Calm - N/A   Clear
9:35 PM 71.6 °F 6.8 °F 8% 29.87 in 10.0 mi Calm Calm - N/A   Clear
9:55 PM 71.6 °F 6.8 °F 8% 29.87 in 10.0 mi WSW 6.9 mph - N/A   Clear
10:35 PM 66.2 °F 6.8 °F 10% 29.87 in 10.0 mi West 11.5 mph - N/A   Clear
10:55 PM 64.4 °F 6.8 °F 10% 29.87 in 10.0 mi West 10.4 mph - N/A   Clear
11:35 PM 62.6 °F 6.8 °F 11% 29.87 in 10.0 mi West 10.4 mph - N/A   Clear
11:55 PM 64.4 °F 8.6 °F 11% 29.87 in 10.0 mi West 16.1 mph - N/A   Clear